Surface/Precipitation History
06/23/2016 14:19  to  6/24/2016 14:19
Change End Date:
Date/Time
(MDT)
Sf
Temp Chem Water Layer Surface Precipitation
Sfc Pvt Sub Frz Factor Pct Dpth DpthThk IcePct Cond Salin FI Type Intens Accum Rate
06/24/2016 14:15 Wet 57.0F - 66F 32F 5 0% 0.00 in - 0% 0 mhos 3 - Yes - - -
06/24/2016 14:09 Wet 57.0F - 66F 32F 5 0% 0.00 in - 0% 0 mhos 2 - Yes - - -
06/24/2016 14:00 Wet 56.3F - 66F 32F 5 0% 0.10 in - 0% 0 mhos 2 - Yes - - -
06/24/2016 13:59 Wet 56.3F - 66F 32F 5 0% 0.00 in - 0% 0 mhos 2 - Yes - - -
06/24/2016 13:49 Wet 56.5F - 66F 32F 5 0% 0.00 in - 0% 0 mhos 1 - Yes - - -
06/24/2016 13:45 Wet 56.3F - 66F 32F 5 0% 0.10 in - 0% 0 mhos 1 - Yes - - -
06/24/2016 13:39 Wet 56.5F - 66F 32F 5 0% 0.10 in - 0% 0 mhos 2 - Yes - - -
06/24/2016 13:30 Wet 56.3F - 66F 32F 5 0% 0.10 in - 0% 0 mhos 2 - Yes - - -
06/24/2016 13:29 Wet 56.1F - 66F 32F 5 0% 0.10 in - 0% 0 mhos 2 - Yes - - -
06/24/2016 13:19 Wet 56.5F - 66F 32F 5 0% 0.10 in - 0% 0 mhos 1 - Yes - - -
06/24/2016 13:15 Wet 56.5F - 66F 32F 5 0% 0.10 in - 0% 0 mhos 2 - Yes - - -
06/24/2016 13:09 Wet 56.8F - 66F 32F 5 0% 0.10 in - 0% 0 mhos 2 - Yes - - -
06/24/2016 13:00 Wet 57.2F - 66F 32F 5 0% 0.10 in - 0% 0 mhos 2 - Yes - - -
06/24/2016 12:59 Wet 57.2F - 66F 32F 5 0% 0.00 in - 0% 0 mhos 2 - Yes - - -
06/24/2016 12:49 Wet 57.2F - 66F 32F 5 0% 0.00 in - 0% 0 mhos 2 - Yes - - -
Date/Time
(MDT)
Sf
Temp Chem Water Layer Surface Precipitation
Sfc Pvt Sub Frz Factor Pct Dpth DpthThk IcePct Cond Salin FI Type Intens Accum Rate
06/24/2016 12:45 Wet 57.2F - 66F 32F 5 0% 0.10 in - 0% 0 mhos 2 - Yes - - -
06/24/2016 12:39 Wet 57.2F - 67F 32F 5 0% 0.10 in - 0% 0 mhos 2 - Yes - - -
06/24/2016 12:30 Wet 57.6F - 67F 32F 5 0% 0.10 in - 0% 0 mhos 2 - Yes - - -
06/24/2016 12:29 Wet 57.6F - 67F 32F 5 0% 0.10 in - 0% 0 mhos 2 - Yes - - -
06/24/2016 12:19 Wet 58.1F - 67F 32F 5 0% 0.00 in - 0% 0 mhos 2 - Yes - - -
06/24/2016 12:15 Wet 58.5F - 67F 32F 5 0% 0.10 in - 0% 0 mhos 2 - Yes - - -
06/24/2016 12:09 Wet 58.5F - 67F 32F 5 0% 0.10 in - 0% 0 mhos 2 - Yes - - -
06/24/2016 12:00 Wet 58.5F - 67F 32F 5 0% 0.10 in - 0% 0 mhos 2 - Yes - - -
06/24/2016 11:59 Wet 58.6F - 67F 32F 5 0% 0.10 in - 0% 0 mhos 2 - Yes - - -
06/24/2016 11:49 Wet 59.7F - 67F 32F 5 0% 0.00 in - 0% 0 mhos 5 - Yes - - -
06/24/2016 11:45 Wet 59.9F - 67F 32F 5 0% 0.00 in - 0% 0 mhos 5 - Yes - - -
06/24/2016 11:39 Wet 60.3F - 67F 32F 5 0% 0.00 in - 0% 0 mhos 5 - Yes - - -
06/24/2016 11:30 Wet 61.3F - 67F 32F 5 0% 0.00 in - 0% 0 mhos 5 - None None - -
06/24/2016 11:28 Wet 61.3F - 67F 32F 5 0% 0.00 in - 0% 0 mhos 5 - None None - -
06/24/2016 11:18 Wet 62.6F - 67F 32F 5 0% 0.00 in - 0% 0 mhos 5 - None None - -
Date/Time
(MDT)
Sf
Temp Chem Water Layer Surface Precipitation
Sfc Pvt Sub Frz Factor Pct Dpth DpthThk IcePct Cond Salin FI Type Intens Accum Rate
06/24/2016 11:15 Wet 63.1F - 67F 32F 5 0% 0.00 in - 0% 0 mhos 5 - None None - -
06/24/2016 11:08 Wet 64.0F - 67F 32F 5 0% 0.00 in - 0% 0 mhos 4 - None None - -
06/24/2016 11:00 Wet 64.6F - 67F 32F 5 0% 0.00 in - 0% 0 mhos 4 - None None - -
06/24/2016 10:58 Wet 63.7F - 67F 32F 5 0% 0.00 in - 0% 0 mhos 4 - None None - -
06/24/2016 10:48 Wet 63.9F - 67F 32F 5 0% 0.00 in - 0% 0 mhos 5 - Yes - - -
06/24/2016 10:45 Wet 62.8F - 67F 32F 5 0% 0.00 in - 0% 0 mhos 5 - Yes - - -
06/24/2016 10:38 Wet 61.7F - 67F 32F 5 0% 0.00 in - 0% 0 mhos 5 - Yes - - -
06/24/2016 10:30 Wet 60.1F - 67F 32F 5 0% 0.00 in - 0% 0 mhos 4 - None None - -
06/24/2016 10:28 Wet 60.3F - 67F 32F 5 0% 0.00 in - 0% 0 mhos 4 - None None - -
06/24/2016 10:18 Wet 60.6F - 67F 32F 5 0% 0.00 in - 0% 0 mhos 5 - None None - -
06/24/2016 10:15 Wet 59.9F - 67F 32F 5 0% 0.00 in - 0% 0 mhos 4 - Yes - - -
06/24/2016 10:08 Wet 60.6F - 67F 32F 5 0% 0.00 in - 0% 0 mhos 5 - Yes - - -
06/24/2016 10:00 Wet 59.9F - 67F 32F 5 0% 0.00 in - 0% 0 mhos 4 - Yes - - -
06/24/2016 09:58 Wet 59.2F - 67F 32F 5 0% 0.00 in - 0% 0 mhos 4 - Yes - - -
06/24/2016 09:48 Wet 58.1F - 67F 32F 5 0% 0.00 in - 0% 0 mhos 3 - Yes - - -
Date/Time
(MDT)
Sf
Temp Chem Water Layer Surface Precipitation
Sfc Pvt Sub Frz Factor Pct Dpth DpthThk IcePct Cond Salin FI Type Intens Accum Rate
06/24/2016 09:45 Wet 58.1F - 67F 32F 5 0% 0.00 in - 0% 0 mhos 1 - Yes - - -
06/24/2016 09:38 Wet 57.7F - 68F 32F 5 0% 0.00 in - 0% 0 mhos 2 - Yes - - -
06/24/2016 09:30 Wet 56.8F - 68F 32F 5 0% 0.10 in - 0% 0 mhos 2 - Yes - - -
06/24/2016 09:28 Wet 56.7F - 68F 32F 5 0% 0.00 in - 0% 0 mhos 2 - Yes - - -
06/24/2016 09:18 Wet 56.5F - 68F 32F 5 0% 0.00 in - 0% 0 mhos 2 - Yes - - -
06/24/2016 09:15 Wet 56.3F - 68F 32F 5 0% 0.10 in - 0% 0 mhos 2 - Yes - - -
06/24/2016 09:08 Wet 56.3F - 68F 32F 5 0% 0.10 in - 0% 0 mhos 2 - Yes - - -
06/24/2016 09:00 Wet 55.9F - 68F 32F 5 0% 0.00 in - 0% 0 mhos 2 - Yes - - -
06/24/2016 08:58 Wet 55.9F - 68F 32F 5 0% 0.00 in - 0% 0 mhos 2 - Yes - - -
06/24/2016 08:48 Wet 55.8F - 68F 32F 5 0% 0.00 in - 0% 0 mhos 2 - Yes - - -
06/24/2016 08:45 Wet 55.4F - 68F 32F 5 0% 0.10 in - 0% 0 mhos 1 - Yes - - -
06/24/2016 08:38 Wet 55.2F - 68F 32F 5 0% 0.10 in - 0% 0 mhos 2 - Yes - - -
06/24/2016 08:30 Wet 55.4F - 68F 32F 5 0% 0.40 in - 0% 0 mhos 1 - Yes - - -
06/24/2016 08:28 Wet 55.2F - 68F 32F 5 0% 0.00 in - 0% 0 mhos 2 - Yes - - -
06/24/2016 08:18 Wet 55.0F - 68F 32F 5 0% 0.10 in - 0% 0 mhos 2 - Yes - - -
Date/Time
(MDT)
Sf
Temp Chem Water Layer Surface Precipitation
Sfc Pvt Sub Frz Factor Pct Dpth DpthThk IcePct Cond Salin FI Type Intens Accum Rate
06/24/2016 08:15 Wet 55.0F - 68F 32F 5 0% 0.00 in - 0% 0 mhos 4 - Yes - - -
06/24/2016 08:08 Wet 55.0F - 68F 32F 5 0% 0.00 in - 0% 0 mhos 4 - Yes - - -
06/24/2016 08:00 Wet 55.0F - 68F 32F 5 0% 0.00 in - 0% 0 mhos 3 - Yes - - -
06/24/2016 07:58 Wet 55.0F - 68F 32F 5 0% 0.00 in - 0% 0 mhos 3 - Yes - - -
06/24/2016 07:47 Wet 55.0F - 68F 32F 5 0% 0.00 in - 0% 0 mhos 2 - Yes - - -
06/24/2016 07:45 Wet 55.0F - 68F 32F 5 0% 0.00 in - 0% 0 mhos 2 - Yes - - -
06/24/2016 07:37 Wet 55.0F - 69F 32F 5 0% 0.00 in - 0% 0 mhos 3 - Yes - - -
06/24/2016 07:30 Wet 55.0F - 69F 32F 5 0% 0.00 in - 0% 0 mhos 3 - Yes - - -
06/24/2016 07:27 Wet 54.9F - 69F 32F 5 0% 0.10 in - 0% 0 mhos 2 - Yes - - -
06/24/2016 07:17 Wet 55.0F - 69F 32F 5 0% 0.00 in - 0% 0 mhos 3 - Yes - - -
06/24/2016 07:15 Wet 55.0F - 69F 32F 5 0% 0.00 in - 0% 0 mhos 3 - Yes - - -
06/24/2016 07:07 Wet 55.0F - 69F 32F 5 0% 0.00 in - 0% 0 mhos 3 - Yes - - -
06/24/2016 07:00 Wet 55.4F - 69F 32F 10 0% 0.10 in - 0% 0 mhos 3 - Yes - - -
06/24/2016 06:57 Wet 55.9F - 69F 32F 5 0% 0.00 in - 0% 0 mhos 0 - Yes - - -
06/24/2016 06:47 Dry 56.3F - 69F - - - - - - 0 mhos 0 - None None - -
Date/Time
(MDT)
Sf
Temp Chem Water Layer Surface Precipitation
Sfc Pvt Sub Frz Factor Pct Dpth DpthThk IcePct Cond Salin FI Type Intens Accum Rate
06/24/2016 06:37 Dry 56.8F - 69F - - - - - - 0 mhos 0 - None None - -
06/24/2016 06:30 Dry 55.9F - 69F - - - - - - 0 mhos 0 - None None - -
06/24/2016 06:27 Dry 55.4F - 69F - - - - - - 0 mhos 0 - None None - -
06/24/2016 06:17 Dry 53.8F - 69F - - - - - - 0 mhos 0 - None None - -
06/24/2016 06:15 Dry 53.6F - 69F - - - - - - 0 mhos 0 - None None - -
06/24/2016 06:07 Dry 53.8F - 69F - - - - - - 0 mhos 0 - None None - -
06/24/2016 06:00 Dry 54.1F - 69F - - - - - - 0 mhos 0 - None None - -
06/24/2016 05:57 Dry 54.1F - 69F - - - - - - 0 mhos 0 - None None - -
06/24/2016 05:47 Dry 53.2F - 69F - - - - - - 0 mhos 0 - None None - -
06/24/2016 05:37 Dry 53.2F - 69F - - - - - - 0 mhos 0 - None None - -
06/24/2016 05:30 Dry 53.2F - 69F - - - - - - 0 mhos 0 - None None - -
06/24/2016 05:27 Dry 53.2F - 69F - - - - - - 0 mhos 0 - None None - -
06/24/2016 05:17 Dry 53.4F - 69F - - - - - - 0 mhos 0 - None None - -
06/24/2016 05:15 Dry 53.4F - 70F - - - - - - 0 mhos 0 - None None - -
06/24/2016 05:07 Dry 53.4F - 70F - - - - - - 0 mhos 0 - None None - -
Date/Time
(MDT)
Sf
Temp Chem Water Layer Surface Precipitation
Sfc Pvt Sub Frz Factor Pct Dpth DpthThk IcePct Cond Salin FI Type Intens Accum Rate
06/24/2016 05:00 Dry 53.6F - 70F - - - - - - 0 mhos 0 - None None - -
06/24/2016 04:57 Dry 53.8F - 70F - - - - - - 0 mhos 0 - None None - -
06/24/2016 04:47 Dry 54.0F - 70F - - - - - - 0 mhos 0 - None None - -
06/24/2016 04:45 Dry 54.0F - 70F - - - - - - 0 mhos 0 - None None - -
06/24/2016 04:37 Dry 54.1F - 70F - - - - - - 0 mhos 0 - None None - -
06/24/2016 04:30 Dry 54.5F - 70F - - - - - - 0 mhos 0 - None None - -
06/24/2016 04:27 Dry 54.5F - 70F - - - - - - 0 mhos 0 - None None - -
06/24/2016 04:17 Dry 54.9F - 70F - - - - - - 0 mhos 0 - None None - -
06/24/2016 04:15 Dry 54.9F - 70F - - - - - - 0 mhos 0 - None None - -
06/24/2016 04:06 Dry 55.0F - 70F - - - - - - 0 mhos 0 - None None - -
06/24/2016 04:00 Dry 55.2F - 70F - - - - - - 0 mhos 0 - None None - -
06/24/2016 03:56 Dry 55.2F - 70F - - - - - - 0 mhos 0 - None None - -
06/24/2016 03:46 Dry 55.6F - 70F - - - - - - 0 mhos 0 - None None - -
06/24/2016 03:45 Dry 55.8F - 70F - - - - - - 0 mhos 0 - None None - -
06/24/2016 03:36 Dry 56.1F - 70F - - - - - - 0 mhos 0 - None None - -
Date/Time
(MDT)
Sf
Temp Chem Water Layer Surface Precipitation
Sfc Pvt Sub Frz Factor Pct Dpth DpthThk IcePct Cond Salin FI Type Intens Accum Rate
06/24/2016 03:30 Dry 56.3F - 70F - - - - - - 0 mhos 0 - None None - -
06/24/2016 03:26 Dry 56.3F - 70F - - - - - - 0 mhos 0 - None None - -
06/24/2016 03:16 Dry 56.7F - 70F - - - - - - 0 mhos 0 - None None - -
06/24/2016 03:15 Dry 56.8F - 70F - - - - - - 0 mhos 0 - None None - -
06/24/2016 03:06 Dry 57.2F - 70F - - - - - - 0 mhos 0 - None None - -
06/24/2016 03:00 Dry 57.6F - 70F - - - - - - 0 mhos 0 - None None - -
06/24/2016 02:56 Dry 57.7F - 70F - - - - - - 0 mhos 0 - None None - -
06/24/2016 02:46 Dry 58.6F - 71F - - - - - - 0 mhos 0 - None None - -
06/24/2016 02:45 Dry 58.6F - 71F - - - - - - 0 mhos 0 - None None - -
06/24/2016 02:36 Dry 58.6F - 71F - - - - - - 0 mhos 0 - None None - -
06/24/2016 02:30 Dry 58.6F - 71F - - - - - - 0 mhos 0 - None None - -
06/24/2016 02:26 Dry 58.6F - 71F - - - - - - 0 mhos 0 - None None - -
06/24/2016 02:16 Dry 58.5F - 71F - - - - - - 0 mhos 0 - None None - -
06/24/2016 02:15 Dry 58.5F - 71F - - - - - - 0 mhos 0 - None None - -
06/24/2016 02:06 Dry 58.1F - 71F - - - - - - 0 mhos 0 - None None - -
Date/Time
(MDT)
Sf
Temp Chem Water Layer Surface Precipitation
Sfc Pvt Sub Frz Factor Pct Dpth DpthThk IcePct Cond Salin FI Type Intens Accum Rate
06/24/2016 02:00 Dry 57.7F - 71F - - - - - - 0 mhos 0 - None None - -
06/24/2016 01:56 Dry 57.9F - 71F - - - - - - 0 mhos 0 - None None - -
06/24/2016 01:46 Dry 58.5F - 71F - - - - - - 0 mhos 0 - None None - -
06/24/2016 01:45 Dry 58.5F - 71F - - - - - - 0 mhos 0 - None None - -
06/24/2016 01:36 Dry 58.6F - 71F - - - - - - 0 mhos 0 - None None - -
06/24/2016 01:30 Dry 58.8F - 71F - - - - - - 0 mhos 0 - None None - -
06/24/2016 01:26 Dry 59.0F - 71F - - - - - - 0 mhos 0 - None None - -
06/24/2016 01:16 Dry 59.4F - 71F - - - - - - 0 mhos 0 - None None - -
06/24/2016 01:15 Dry 59.4F - 71F - - - - - - 0 mhos 0 - None None - -
06/24/2016 01:06 Dry 59.5F - 71F - - - - - - 0 mhos 0 - None None - -
06/24/2016 01:00 Dry 59.7F - 71F - - - - - - 0 mhos 0 - None None - -
06/24/2016 00:56 Dry 59.9F - 71F - - - - - - 0 mhos 0 - None None - -
06/24/2016 00:45 Dry 60.1F - 71F - - - - - - 0 mhos 0 - None None - -
06/24/2016 00:45 Dry 60.1F - 71F - - - - - - 0 mhos 0 - None None - -
06/24/2016 00:35 Dry 60.4F - 71F - - - - - - 0 mhos 0 - None None - -
Date/Time
(MDT)
Sf
Temp Chem Water Layer Surface Precipitation
Sfc Pvt Sub Frz Factor Pct Dpth DpthThk IcePct Cond Salin FI Type Intens Accum Rate
06/24/2016 00:30 Dry 60.6F - 71F - - - - - - 0 mhos 0 - None None - -
06/24/2016 00:25 Dry 60.8F - 71F - - - - - - 0 mhos 0 - None None - -
06/24/2016 00:15 Dry 61.0F - 71F - - - - - - 0 mhos 0 - None None - -
06/24/2016 00:15 Dry 61.0F - 71F - - - - - - 0 mhos 0 - None None - -
06/24/2016 00:05 Dry 61.5F - 71F - - - - - - 0 mhos 0 - None None - -
06/24/2016 00:00 Dry 61.7F - 71F - - - - - - 0 mhos 0 - None None - -
06/23/2016 23:55 Dry 62.1F - 71F - - - - - - 0 mhos 0 - None None - -
06/23/2016 23:45 Dry 62.2F - 71F - - - - - - 0 mhos 0 - None None - -
06/23/2016 23:45 Dry 62.2F - 71F - - - - - - 0 mhos 0 - None None - -
06/23/2016 23:35 Dry 63.0F - 71F - - - - - - 0 mhos 0 - None None - -
06/23/2016 23:30 Dry 63.1F - 71F - - - - - - 0 mhos 0 - None None - -
06/23/2016 23:25 Dry 63.3F - 71F - - - - - - 0 mhos 0 - None None - -
06/23/2016 23:15 Dry 63.7F - 71F - - - - - - 0 mhos 0 - None None - -
06/23/2016 23:15 Dry 63.7F - 71F - - - - - - 0 mhos 0 - None None - -
06/23/2016 23:05 Dry 64.4F - 71F - - - - - - 0 mhos 0 - None None - -
Date/Time
(MDT)
Sf
Temp Chem Water Layer Surface Precipitation
Sfc Pvt Sub Frz Factor Pct Dpth DpthThk IcePct Cond Salin FI Type Intens Accum Rate
06/23/2016 23:00 Dry 64.6F - 71F - - - - - - 0 mhos 0 - None None - -
06/23/2016 22:55 Dry 64.8F - 71F - - - - - - 0 mhos 0 - None None - -
06/23/2016 22:45 Dry 65.5F - 71F - - - - - - 0 mhos 0 - None None - -
06/23/2016 22:45 Dry 65.5F - 71F - - - - - - 0 mhos 0 - None None - -
06/23/2016 22:35 Dry 65.8F - 71F - - - - - - 0 mhos 0 - None None - -
06/23/2016 22:30 Dry 66.0F - 71F - - - - - - 0 mhos 0 - None None - -
06/23/2016 22:25 Dry 66.6F - 71F - - - - - - 0 mhos 0 - None None - -
06/23/2016 22:15 Dry 67.1F - 71F - - - - - - 0 mhos 0 - None None - -
06/23/2016 22:15 Dry 67.1F - 71F - - - - - - 0 mhos 0 - None None - -
06/23/2016 22:05 Dry 67.8F - 71F - - - - - - 0 mhos 0 - None None - -
06/23/2016 22:00 Dry 68.0F - 71F - - - - - - 0 mhos 0 - None None - -
06/23/2016 21:55 Dry 68.5F - 71F - - - - - - 0 mhos 0 - None None - -
06/23/2016 21:45 Dry 69.3F - 71F - - - - - - 0 mhos 0 - None None - -
06/23/2016 21:45 Dry 69.3F - 71F - - - - - - 0 mhos 0 - None None - -
06/23/2016 21:35 Dry 70.2F - 71F - - - - - - 0 mhos 0 - None None - -
Date/Time
(MDT)
Sf
Temp Chem Water Layer Surface Precipitation
Sfc Pvt Sub Frz Factor Pct Dpth DpthThk IcePct Cond Salin FI Type Intens Accum Rate
06/23/2016 21:30 Dry 70.7F - 71F - - - - - - 0 mhos 0 - None None - -
06/23/2016 21:25 Dry 71.2F - 71F - - - - - - 0 mhos 0 - None None - -
06/23/2016 21:15 Dry 72.3F - 71F - - - - - - 0 mhos 0 - None None - -
06/23/2016 21:14 Dry 72.3F - 71F - - - - - - 0 mhos 0 - None None - -
06/23/2016 21:04 Dry 73.4F - 71F - - - - - - 0 mhos 0 - None None - -
06/23/2016 21:00 Dry 73.8F - 71F - - - - - - 0 mhos 0 - None None - -
06/23/2016 20:54 Dry 74.5F - 71F - - - - - - 0 mhos 0 - None None - -
06/23/2016 20:45 Dry 75.4F - 71F - - - - - - 0 mhos 0 - None None - -
06/23/2016 20:44 Dry 75.4F - 71F - - - - - - 0 mhos 0 - None None - -
06/23/2016 20:34 Dry 76.5F - 71F - - - - - - 0 mhos 0 - None None - -
06/23/2016 20:30 Dry 77.0F - 71F - - - - - - 0 mhos 0 - None None - -
06/23/2016 20:24 Dry 77.0F - 71F - - - - - - 0 mhos 0 - None None - -
06/23/2016 20:15 Dry 77.5F - 70F - - - - - - 0 mhos 0 - None None - -
06/23/2016 20:14 Dry 77.5F - 70F - - - - - - 0 mhos 0 - None None - -
06/23/2016 20:04 Dry 78.8F - 70F - - - - - - 0 mhos 0 - None None - -
Date/Time
(MDT)
Sf
Temp Chem Water Layer Surface Precipitation
Sfc Pvt Sub Frz Factor Pct Dpth DpthThk IcePct Cond Salin FI Type Intens Accum Rate
06/23/2016 20:00 Dry 79.5F - 70F - - - - - - 0 mhos 0 - None None - -
06/23/2016 19:54 Dry 79.7F - 70F - - - - - - 0 mhos 0 - None None - -
06/23/2016 19:45 Dry 80.6F - 70F - - - - - - 0 mhos 0 - None None - -
06/23/2016 19:44 Dry 80.6F - 70F - - - - - - 0 mhos 0 - None None - -
06/23/2016 19:34 Dry 82.0F - 70F - - - - - - 0 mhos 0 - None None - -
06/23/2016 19:30 Dry 82.8F - 70F - - - - - - 0 mhos 0 - None None - -
06/23/2016 19:24 Dry 83.7F - 70F - - - - - - 0 mhos 0 - None None - -
06/23/2016 19:15 Dry 86.5F - 70F - - - - - - 0 mhos 0 - None None - -
06/23/2016 19:14 Dry 86.7F - 70F - - - - - - 0 mhos 0 - None None - -
06/23/2016 19:04 Dry 84.2F - 70F - - - - - - 0 mhos 0 - None None - -
06/23/2016 19:00 Dry 82.9F - 70F - - - - - - 0 mhos 0 - None None - -
06/23/2016 18:54 Dry 83.8F - 70F - - - - - - 0 mhos 0 - None None - -
06/23/2016 18:45 Dry 84.4F - 70F - - - - - - 0 mhos 0 - None None - -
06/23/2016 18:44 Dry 84.7F - 70F - - - - - - 0 mhos 0 - None None - -
06/23/2016 18:34 Dry 87.1F - 70F - - - - - - 0 mhos 0 - None None - -
Date/Time
(MDT)
Sf
Temp Chem Water Layer Surface Precipitation
Sfc Pvt Sub Frz Factor Pct Dpth DpthThk IcePct Cond Salin FI Type Intens Accum Rate
06/23/2016 18:30 Dry 87.4F - 70F - - - - - - 0 mhos 0 - None None - -
06/23/2016 18:24 Dry 88.0F - 70F - - - - - - 0 mhos 0 - None None - -
06/23/2016 18:15 Dry 88.7F - 70F - - - - - - 0 mhos 0 - None None - -
06/23/2016 18:14 Dry 88.7F - 69F - - - - - - 0 mhos 0 - None None - -
06/23/2016 18:04 Dry 91.6F - 69F - - - - - - 0 mhos 0 - None None - -
06/23/2016 18:00 Dry 91.6F - 69F - - - - - - 0 mhos 0 - None None - -
06/23/2016 17:54 Dry 91.6F - 69F - - - - - - 0 mhos 0 - None None - -
06/23/2016 17:45 Dry 92.1F - 69F - - - - - - 0 mhos 0 - None None - -
06/23/2016 17:44 Dry 93.4F - 69F - - - - - - 0 mhos 0 - None None - -
06/23/2016 17:33 Dry 99.5F - 69F - - - - - - 0 mhos 0 - None None - -
06/23/2016 17:30 Dry 95.4F - 69F - - - - - - 0 mhos 0 - None None - -
06/23/2016 17:23 Dry 98.6F - 69F - - - - - - 0 mhos 0 - None None - -
06/23/2016 17:15 Dry 98.4F - 69F - - - - - - 0 mhos 0 - None None - -
06/23/2016 17:13 Dry 99.5F - 69F - - - - - - 0 mhos 0 - None None - -
06/23/2016 17:03 Dry 90.0F - 69F - - - - - - 0 mhos 0 - None None - -
Date/Time
(MDT)
Sf
Temp Chem Water Layer Surface Precipitation
Sfc Pvt Sub Frz Factor Pct Dpth DpthThk IcePct Cond Salin FI Type Intens Accum Rate
06/23/2016 17:00 Dry 90.9F - 69F - - - - - - 0 mhos 0 - None None - -
06/23/2016 16:53 Dry 90.5F - 69F - - - - - - 0 mhos 0 - None None - -
06/23/2016 16:45 Dry 88.0F - 69F - - - - - - 0 mhos 0 - None None - -
06/23/2016 16:43 Dry 87.8F - 69F - - - - - - 0 mhos 0 - None None - -
06/23/2016 16:33 Dry 87.3F - 69F - - - - - - 0 mhos 0 - None None - -
06/23/2016 16:30 Dry 86.5F - 69F - - - - - - 0 mhos 0 - None None - -
06/23/2016 16:23 Dry 86.4F - 69F - - - - - - 0 mhos 0 - None None - -
06/23/2016 16:15 Dry 87.4F - 69F - - - - - - 0 mhos 0 - None None - -
06/23/2016 16:13 Dry 88.3F - 69F - - - - - - 0 mhos 0 - None None - -
06/23/2016 16:03 Dry 90.1F - 69F - - - - - - 0 mhos 0 - None None - -
06/23/2016 16:00 Dry 89.6F - 68F - - - - - - 0 mhos 0 - None None - -
06/23/2016 15:53 Dry 89.6F - 68F - - - - - - 0 mhos 0 - None None - -
06/23/2016 15:45 Dry 91.8F - 68F - - - - - - 0 mhos 0 - None None - -
06/23/2016 15:43 Dry 92.5F - 68F - - - - - - 0 mhos 0 - None None - -
06/23/2016 15:33 Dry 97.0F - 68F - - - - - - 0 mhos 0 - None None - -
Date/Time
(MDT)
Sf
Temp Chem Water Layer Surface Precipitation
Sfc Pvt Sub Frz Factor Pct Dpth DpthThk IcePct Cond Salin FI Type Intens Accum Rate
06/23/2016 15:30 Dry 99.1F - 68F - - - - - - 0 mhos 0 - None None - -
06/23/2016 15:23 Dry 103.8F - 68F - - - - - - 0 mhos 0 - None None - -
06/23/2016 15:15 Dry 113.2F - 68F - - - - - - 0 mhos 0 - None None - -
06/23/2016 15:13 Dry 114.8F - 68F - - - - - - 0 mhos 0 - None None - -
06/23/2016 15:03 Dry 108.7F - 68F - - - - - - 0 mhos 0 - None None - -
06/23/2016 15:00 Dry 104.7F - 68F - - - - - - 0 mhos 0 - None None - -
06/23/2016 14:53 Dry 98.6F - 68F - - - - - - 0 mhos 0 - None None - -
06/23/2016 14:45 Dry 95.5F - 68F - - - - - - 0 mhos 0 - None None - -
06/23/2016 14:43 Dry 95.5F - 68F - - - - - - 0 mhos 0 - None None - -
06/23/2016 14:33 Dry 96.8F - 68F - - - - - - 0 mhos 0 - None None - -
06/23/2016 14:30 Dry 98.2F - 68F - - - - - - 0 mhos 0 - None None - -
06/23/2016 14:23 Dry 96.8F - 68F - - - - - - 0 mhos 0 - None None - -
Change End Date:

Copyright © 1998-2015 Vaisala, Inc.
All Rights Reserved
Send comments about the data to:
SCAN Web ® is a registered trademark of Vaisala, Inc.
SCAN Web Version 6.0